Station Historical Data
Daily Summary for May 5, 2017 Units:  Metric    English   Both
« Previous Day
Next Day »
Daily Weekly Monthly Yearly Custom
  High: Low: Average:
Temperature: 9.7 °C 7.1 °C 8.6 °C
Dew Point: 8.9 °C 6.2 °C 7.7 °C
Humidity: 95% 92% 94%
Wind Speed: 16.1km/h 0km/h 4.3km/h
Wind Gust: 30.6km/h - -
Wind- - SSE
Pressure: 1010.4 hPa 995.8 hPa -
Precipitation: 0 mm    
Historical Graphs
 
 
Tabular Data for May 5, 2017
Time Temperature Dew Point Pressure Wind Wind Speed Wind Gust Humidity Rainfall Rate (Hourly)
00:04 7.9 °C 6.7 °C 1010.4 hPa NE 1.6 km/h 6.4 km/h 92% 0.51 mm
00:14 7.9 °C 6.7 °C 1010.4 hPa NE 1.6 km/h 8 km/h 92% 0.76 mm
00:19 7.9 °C 6.7 °C 1010.4 hPa NE 3.2 km/h 4.8 km/h 92% 1.02 mm
00:24 7.9 °C 6.7 °C 1010 hPa NE 3.2 km/h 8 km/h 92% 1.02 mm
00:29 7.9 °C 6.9 °C 1010 hPa NE 3.2 km/h 4.8 km/h 93% 1.02 mm
00:34 7.9 °C 6.9 °C 1010 hPa NE 3.2 km/h 6.4 km/h 93% 1.27 mm
00:39 7.9 °C 6.9 °C 1010 hPa NE 3.2 km/h 6.4 km/h 93% 1.52 mm
00:44 7.9 °C 6.9 °C 1010 hPa NE 1.6 km/h 4.8 km/h 93% 1.27 mm
00:49 7.9 °C 6.9 °C 1010 hPa NE 1.6 km/h 3.2 km/h 93% 1.27 mm
00:54 7.9 °C 6.9 °C 1010 hPa NE 1.6 km/h 3.2 km/h 93% 1.52 mm
01:00 7.9 °C 6.9 °C 1009.7 hPa NE 1.6 km/h 6.4 km/h 93% 1.52 mm
01:04 7.9 °C 6.9 °C 1009.7 hPa NE 1.6 km/h 6.4 km/h 93% 1.52 mm
01:09 8 °C 6.9 °C 1009.7 hPa Calm   3.2 km/h 93% 1.27 mm
01:14 8 °C 6.9 °C 1009.7 hPa Calm     93% 1.52 mm
01:19 8 °C 6.9 °C 1009.7 hPa Calm     93% 1.27 mm
01:24 8.1 °C 7 °C 1009.7 hPa Calm     93% 1.52 mm
01:29 8.1 °C 7.1 °C 1009.4 hPa NE 4.8 km/h 6.4 km/h 93% 2.03 mm
01:34 8.1 °C 7.1 °C 1009.4 hPa NE 1.6 km/h 6.4 km/h 93% 2.29 mm
01:39 8.2 °C 7.1 °C 1009 hPa NE 1.6 km/h 6.4 km/h 93% 2.29 mm
01:44 8.2 °C 7.3 °C 1009 hPa NE 1.6 km/h 3.2 km/h 94% 2.54 mm
01:49 8.2 °C 7.3 °C 1009 hPa NE 1.6 km/h 3.2 km/h 94% 2.79 mm
01:54 8.2 °C 7.3 °C 1009 hPa Calm   4.8 km/h 94% 2.79 mm
01:59 8.3 °C 7.4 °C 1008.7 hPa NE 1.6 km/h 3.2 km/h 94% 2.79 mm
02:04 8.3 °C 7.4 °C 1008.7 hPa NE 1.6 km/h 4.8 km/h 94% 3.05 mm
02:09 8.3 °C 7.4 °C 1008.7 hPa NE 3.2 km/h 8 km/h 94% 3.05 mm
02:14 8.2 °C 7.3 °C 1008.4 hPa NNE 3.2 km/h 8 km/h 94% 3.05 mm
02:19 8.2 °C 7.2 °C 1008.4 hPa NNW 1.6 km/h 8 km/h 93% 3.3 mm
02:24 8.2 °C 7.3 °C 1008.4 hPa NNW 1.6 km/h 4.8 km/h 94% 3.3 mm
02:29 8.2 °C 7.3 °C 1008.4 hPa NNW 3.2 km/h 4.8 km/h 94% 3.05 mm
02:34 8.2 °C 7.3 °C 1008.4 hPa NNW 3.2 km/h 4.8 km/h 94% 2.54 mm
02:39 8.2 °C 7.3 °C 1008 hPa NNW 3.2 km/h 6.4 km/h 94% 2.29 mm
02:44 8.2 °C 7.3 °C 1008 hPa Calm   6.4 km/h 94% 2.54 mm
02:49 8.2 °C 7.3 °C 1008 hPa NNW 4.8 km/h 4.8 km/h 94% 2.29 mm
02:54 8.2 °C 7.3 °C 1007.7 hPa NE 1.6 km/h 4.8 km/h 94% 2.29 mm
02:59 8.2 °C 7.3 °C 1008 hPa NNW 6.4 km/h 6.4 km/h 94% 2.29 mm
03:04 8.2 °C 7.3 °C 1007.7 hPa NNW 3.2 km/h 6.4 km/h 94% 2.03 mm
03:09 8.3 °C 7.4 °C 1007.3 hPa North 1.6 km/h 6.4 km/h 94% 2.29 mm
03:14 8.3 °C 7.4 °C 1007.3 hPa North 1.6 km/h 4.8 km/h 94% 2.03 mm
03:19 8.4 °C 7.5 °C 1007.3 hPa North 1.6 km/h 3.2 km/h 94% 2.03 mm
03:24 8.4 °C 7.5 °C 1007.3 hPa North 1.6 km/h 4.8 km/h 94% 1.78 mm
03:29 8.4 °C 7.5 °C 1007.3 hPa Calm     94% 2.03 mm
03:34 8.4 °C 7.6 °C 1007.3 hPa Calm     94% 2.03 mm
03:39 8.5 °C 7.6 °C 1007.3 hPa Calm     94% 1.78 mm
03:44 8.5 °C 7.6 °C 1007 hPa Calm     94% 1.52 mm
03:49 8.5 °C 7.6 °C 1007 hPa Calm     94% 1.52 mm
03:54 8.5 °C 7.6 °C 1007 hPa Calm     94% 1.52 mm
03:59 8.5 °C 7.6 °C 1007 hPa Calm     94% 1.27 mm
04:04 8.5 °C 7.6 °C 1007 hPa Calm     94% 1.27 mm
04:09 8.6 °C 7.7 °C 1007 hPa Calm     94% 1.02 mm
04:14 8.6 °C 7.7 °C 1007 hPa Calm     94% 1.02 mm
04:19 8.6 °C 7.7 °C 1006.7 hPa Calm     94% 0.76 mm
04:24 8.7 °C 7.8 °C 1006.7 hPa Calm     94% 0.76 mm
04:29 8.6 °C 7.7 °C 1006.7 hPa NNW 4.8 km/h 6.4 km/h 94% 0.51 mm
04:34 8.6 °C 7.7 °C 1006.7 hPa NNW 3.2 km/h 8 km/h 94% 0.51 mm
04:39 8.6 °C 7.7 °C 1006.7 hPa Calm   6.4 km/h 94% 0.76 mm
04:44 8.6 °C 7.7 °C 1006.7 hPa NNW 1.6 km/h 4.8 km/h 94% 0.76 mm
04:49 8.6 °C 7.7 °C 1006.3 hPa Calm   8 km/h 94% 0.76 mm
04:54 8.6 °C 7.7 °C 1006.3 hPa NNW 1.6 km/h 4.8 km/h 94% 0.51 mm
04:59 8.6 °C 7.7 °C 1006.3 hPa NNW 3.2 km/h 3.2 km/h 94% 0.76 mm
05:04 8.7 °C 7.8 °C 1006.3 hPa NNW 1.6 km/h 4.8 km/h 94% 0.76 mm
05:09 8.7 °C 7.8 °C 1006.3 hPa NNW 1.6 km/h 4.8 km/h 94% 0.76 mm
05:14 8.7 °C 7.8 °C 1006.3 hPa NNW 1.6 km/h 4.8 km/h 94% 1.02 mm
05:19 8.7 °C 7.8 °C 1006 hPa NNW 1.6 km/h 4.8 km/h 94% 1.27 mm
05:24 8.7 °C 7.8 °C 1006 hPa Calm   4.8 km/h 94% 1.27 mm
05:29 8.7 °C 7.8 °C 1006 hPa Calm   1.6 km/h 94% 1.02 mm
05:34 8.7 °C 7.8 °C 1006 hPa Calm     94% 1.02 mm
05:39 8.8 °C 8 °C 1006 hPa Calm     95% 0.76 mm
05:44 8.8 °C 8 °C 1006 hPa Calm   3.2 km/h 95% 0.76 mm
05:49 8.8 °C 8.1 °C 1006 hPa NNW 4.8 km/h 4.8 km/h 95% 1.02 mm
05:54 8.8 °C 8 °C 1005.6 hPa NNW 1.6 km/h 4.8 km/h 95% 1.02 mm
05:59 8.8 °C 8 °C 1006 hPa Calm   4.8 km/h 95% 1.02 mm
06:04 8.8 °C 8.1 °C 1006 hPa NNW 1.6 km/h 4.8 km/h 95% 1.02 mm
06:09 8.8 °C 8.1 °C 1005.6 hPa NNW 1.6 km/h 6.4 km/h 95% 1.27 mm
06:14 8.8 °C 8.1 °C 1005.6 hPa NNW 1.6 km/h 6.4 km/h 95% 1.27 mm
06:19 8.9 °C 8.1 °C 1005.3 hPa NNW 1.6 km/h 4.8 km/h 95% 1.27 mm
06:24 8.9 °C 8.2 °C 1005.6 hPa NNW 1.6 km/h 6.4 km/h 95% 1.27 mm
06:29 8.9 °C 8.2 °C 1005.3 hPa NNW 1.6 km/h 3.2 km/h 95% 1.52 mm
06:34 8.9 °C 8.2 °C 1005.6 hPa NNW 1.6 km/h 6.4 km/h 95% 1.52 mm
06:39 8.9 °C 8.2 °C 1005.6 hPa NNW 1.6 km/h 6.4 km/h 95% 1.78 mm
06:44 8.9 °C 8.2 °C 1005.3 hPa NNW 3.2 km/h 4.8 km/h 95% 2.03 mm
06:49 8.8 °C 8.1 °C 1005.3 hPa North 6.4 km/h 6.4 km/h 95% 2.54 mm
06:54 8.8 °C 8.1 °C 1005.3 hPa Calm   6.4 km/h 95% 3.3 mm
06:59 8.8 °C 8 °C 1005.3 hPa North 3.2 km/h 4.8 km/h 95% 3.81 mm
07:04 8.7 °C 7.9 °C 1005.3 hPa North 3.2 km/h 6.4 km/h 95% 4.57 mm
07:09 8.6 °C 7.8 °C 1005.3 hPa North 3.2 km/h 6.4 km/h 95% 5.33 mm
07:14 8.5 °C 7.7 °C 1005.3 hPa North 3.2 km/h 6.4 km/h 95% 5.59 mm
07:19 8.5 °C 7.7 °C 1005.3 hPa NNE 3.2 km/h 8 km/h 95% 6.35 mm
07:24 8.4 °C 7.6 °C 1005.3 hPa NNW 3.2 km/h 6.4 km/h 95% 6.6 mm
07:29 8.3 °C 7.6 °C 1005.6 hPa NNW 1.6 km/h 11.3 km/h 95% 6.6 mm
07:34 8.3 °C 7.6 °C 1005.3 hPa North 3.2 km/h 11.3 km/h 95% 6.6 mm
07:39 8.3 °C 7.6 °C 1005.3 hPa North 3.2 km/h 6.4 km/h 95% 6.35 mm
07:44 8.4 °C 7.6 °C 1005.3 hPa North 4.8 km/h 8 km/h 95% 6.35 mm
07:49 8.3 °C 7.6 °C 1005.3 hPa NNE 1.6 km/h 8 km/h 95% 5.84 mm
07:54 8.4 °C 7.6 °C 1005.3 hPa North 1.6 km/h 6.4 km/h 95% 5.08 mm
07:59 8.5 °C 7.7 °C 1005.3 hPa NNE 4.8 km/h 6.4 km/h 95% 4.32 mm
08:04 8.5 °C 7.7 °C 1005.3 hPa NNE 3.2 km/h 8 km/h 95% 3.56 mm
08:09 8.5 °C 7.7 °C 1005.3 hPa NNE 4.8 km/h 8 km/h 95% 3.05 mm
08:14 8.6 °C 7.8 °C 1005 hPa NNE 4.8 km/h 8 km/h 95% 3.05 mm
08:19 8.7 °C 7.9 °C 1005 hPa NNE 3.2 km/h 6.4 km/h 95% 2.29 mm
08:24 8.7 °C 7.9 °C 1005 hPa North 3.2 km/h 9.7 km/h 95% 2.29 mm
08:29 8.8 °C 8 °C 1005 hPa NNE 6.4 km/h 8 km/h 95% 2.29 mm
08:34 8.8 °C 8.1 °C 1004.6 hPa NNE 3.2 km/h 8 km/h 95% 2.54 mm
08:39 8.8 °C 8.1 °C 1004.6 hPa NE 4.8 km/h 11.3 km/h 95% 2.29 mm
08:44 8.9 °C 8.1 °C 1004.6 hPa NNE 4.8 km/h 8 km/h 95% 2.54 mm
08:49 8.9 °C 8.1 °C 1004.6 hPa NNE 4.8 km/h 12.9 km/h 95% 2.54 mm
08:54 8.9 °C 8.2 °C 1004.3 hPa ENE 3.2 km/h 11.3 km/h 95% 2.54 mm
08:59 8.9 °C 8.2 °C 1004.3 hPa NNE 4.8 km/h 8 km/h 95% 2.79 mm
09:04 9 °C 8.2 °C 1004.3 hPa NE 4.8 km/h 11.3 km/h 95% 2.79 mm
09:09 9 °C 8.2 °C 1003.9 hPa NE 4.8 km/h 11.3 km/h 95% 2.29 mm
09:14 9.1 °C 8.3 °C 1003.9 hPa NE 4.8 km/h 9.7 km/h 95% 2.03 mm
09:19 9.1 °C 8.3 °C 1003.9 hPa NE 4.8 km/h 11.3 km/h 95% 2.03 mm
09:24 9.1 °C 8.3 °C 1003.9 hPa ENE 6.4 km/h 12.9 km/h 95% 2.03 mm
09:29 9.1 °C 8.3 °C 1003.9 hPa NE 6.4 km/h 8 km/h 95% 2.03 mm
09:34 9.1 °C 8.3 °C 1003.6 hPa NE 4.8 km/h 12.9 km/h 95% 2.03 mm
09:39 9.1 °C 8.3 °C 1003.6 hPa NE 4.8 km/h 12.9 km/h 95% 2.29 mm
09:44 9.1 °C 8.3 °C 1003.6 hPa NE 4.8 km/h 12.9 km/h 95% 2.29 mm
09:49 9.1 °C 8.3 °C 1003.6 hPa NE 8 km/h 12.9 km/h 95% 2.29 mm
09:54 9.1 °C 8.3 °C 1003.3 hPa NE 8 km/h 12.9 km/h 95% 2.54 mm
09:59 9.2 °C 8.4 °C 1003.3 hPa NE 4.8 km/h 12.9 km/h 95% 2.54 mm
10:04 9.1 °C 8.3 °C 1002.9 hPa NE 6.4 km/h 16.1 km/h 95% 2.54 mm
10:09 9.2 °C 8.4 °C 1002.9 hPa ENE 4.8 km/h 16.1 km/h 95% 2.79 mm
10:14 9.2 °C 8.4 °C 1002.9 hPa NE 8 km/h 17.7 km/h 95% 2.79 mm
10:19 9.2 °C 8.4 °C 1002.9 hPa North 3.2 km/h 17.7 km/h 95% 2.79 mm
10:24 9.2 °C 8.4 °C 1002.6 hPa NNE 4.8 km/h 17.7 km/h 95% 3.05 mm
10:29 9.2 °C 8.4 °C 1002.3 hPa NE 8 km/h 16.1 km/h 95% 3.05 mm
10:34 9.3 °C 8.5 °C 1002.3 hPa NE 6.4 km/h 16.1 km/h 95% 3.05 mm
10:39 9.3 °C 8.6 °C 1002.3 hPa NNE 8 km/h 16.1 km/h 95% 3.05 mm
10:44 9.4 °C 8.6 °C 1001.9 hPa NE 8 km/h 17.7 km/h 95% 3.05 mm
10:49 9.4 °C 8.6 °C 1001.9 hPa NE 8 km/h 17.7 km/h 95% 3.05 mm
10:54 9.5 °C 8.7 °C 1001.9 hPa NE 9.7 km/h 20.9 km/h 95% 2.79 mm
10:59 9.6 °C 8.8 °C 1001.6 hPa ENE 16.1 km/h 19.3 km/h 95% 2.54 mm
11:04 9.7 °C 8.9 °C 1001.6 hPa NE 9.7 km/h 20.9 km/h 95% 2.54 mm
11:09 9.7 °C 8.9 °C 1001.2 hPa North 11.3 km/h 19.3 km/h 95% 2.29 mm
11:14 9.7 °C 8.9 °C 1001.2 hPa NE 6.4 km/h 20.9 km/h 95% 2.03 mm
11:19 9.7 °C 8.9 °C 1001.2 hPa NE 6.4 km/h 17.7 km/h 95% 1.78 mm
11:24 9.7 °C 8.8 °C 1001.6 hPa NE 4.8 km/h 19.3 km/h 94% 1.52 mm
11:29 9.6 °C 8.7 °C 1001.2 hPa NE 6.4 km/h 17.7 km/h 94% 1.52 mm
11:34 9.4 °C 8.5 °C 1001.2 hPa NE 9.7 km/h 19.3 km/h 94% 1.52 mm
11:44 9.2 °C 8.3 °C 1001.2 hPa NE 12.9 km/h 30.6 km/h 94% 1.27 mm
11:49 9.2 °C 8.3 °C 1001.2 hPa NE 9.7 km/h 20.9 km/h 94% 1.02 mm
11:54 9.1 °C 8.2 °C 1001.2 hPa NE 12.9 km/h 19.3 km/h 94% 1.27 mm
11:59 9.1 °C 8.2 °C 1000.9 hPa NE 4.8 km/h 17.7 km/h 94% 1.27 mm
12:04 9.1 °C 8.2 °C 1000.9 hPa NE 9.7 km/h 17.7 km/h 94% 1.02 mm
12:14 9.2 °C 8.3 °C 1000.6 hPa NE 12.9 km/h 17.7 km/h 94% 1.52 mm
12:19 9.1 °C 8.2 °C 1000.2 hPa NE 8 km/h 14.5 km/h 94% 2.03 mm
12:24 9.2 °C 8.3 °C 1000.2 hPa NE 11.3 km/h 16.1 km/h 94% 2.03 mm
12:29 9.2 °C 8.3 °C 1000.2 hPa NE 8 km/h 22.5 km/h 94% 2.03 mm
12:34 9.2 °C 8.3 °C 1000.2 hPa NE 4.8 km/h 17.7 km/h 94% 1.78 mm
12:39 9.2 °C 8.3 °C 1000.2 hPa NE 9.7 km/h 17.7 km/h 94% 1.78 mm
12:44 9.2 °C 8.3 °C 999.9 hPa NE 8 km/h 17.7 km/h 94% 1.52 mm
12:49 9.3 °C 8.4 °C 999.9 hPa NE 9.7 km/h 20.9 km/h 94% 1.52 mm
12:54 9.3 °C 8.4 °C 999.9 hPa NE 9.7 km/h 20.9 km/h 94% 1.27 mm
12:59 9.3 °C 8.4 °C 999.9 hPa NE 9.7 km/h 20.9 km/h 94% 1.27 mm
13:04 9.3 °C 8.4 °C 999.9 hPa NE 8 km/h 25.7 km/h 94% 1.27 mm
13:09 9.3 °C 8.4 °C 999.5 hPa NE 8 km/h 25.7 km/h 94% 1.02 mm
13:14 9.1 °C 8.1 °C 999.5 hPa NNE 6.4 km/h 17.7 km/h 93% 0.76 mm
13:19 9.2 °C 8.3 °C 999.5 hPa NE 4.8 km/h 17.7 km/h 94% 0.25 mm
13:24 9.1 °C 8 °C 999.5 hPa NE 8 km/h 19.3 km/h 93% 0.51 mm
13:29 9 °C 8.1 °C 999.5 hPa NE 4.8 km/h 16.1 km/h 94% 0.25 mm
13:34 9 °C 8.1 °C 999.2 hPa NNE 6.4 km/h 11.3 km/h 94% 0.25 mm
13:39 8.9 °C 7.8 °C 999.2 hPa NE 8 km/h 25.7 km/h 93% 0.25 mm
13:44 8.9 °C 8.1 °C 999.2 hPa NE 8 km/h 25.7 km/h 94% 0.25 mm
13:49 8.9 °C 8.1 °C 999.2 hPa NE 6.4 km/h 16.1 km/h 94% 0.25 mm
13:54 8.9 °C 8.1 °C 998.9 hPa NE 6.4 km/h 17.7 km/h 94% 0.25 mm
13:59 9 °C 8.1 °C 998.9 hPa NNE 6.4 km/h 14.5 km/h 94% 0.25 mm
14:04 9 °C 8.1 °C 998.9 hPa NE 6.4 km/h 19.3 km/h 94% 0.25 mm
14:09 9.1 °C 8.2 °C 998.9 hPa NNE 4.8 km/h 12.9 km/h 94% 0.25 mm
14:14 8.9 °C 7.9 °C 998.5 hPa NNE 6.4 km/h 17.7 km/h 93% 0.51 mm
14:19 8.9 °C 7.8 °C 998.5 hPa NE 8 km/h 22.5 km/h 93% 0.51 mm
14:24 8.8 °C 7.7 °C 998.5 hPa NNE 8 km/h 14.5 km/h 93% 0.25 mm
14:29 8.7 °C 7.6 °C 998.5 hPa NE 6.4 km/h 22.5 km/h 93% 0.25 mm
14:34 8.7 °C 7.7 °C 998.2 hPa NE 4.8 km/h 19.3 km/h 93% 0.25 mm
14:39 8.8 °C 7.8 °C 998.2 hPa NNE 8 km/h 14.5 km/h 93% 0.25 mm
14:44 8.7 °C 7.7 °C 998.2 hPa NNE 8 km/h 14.5 km/h 93% 0.25 mm
14:49 8.7 °C 7.7 °C 998.2 hPa NNE 8 km/h 19.3 km/h 93% 0.25 mm
14:54 8.8 °C 7.8 °C 997.9 hPa NNE 4.8 km/h 17.7 km/h 93% 0.25 mm
14:59 8.8 °C 7.9 °C 997.9 hPa NNE 4.8 km/h 14.5 km/h 94% 0.25 mm
15:04 8.8 °C 7.8 °C 997.9 hPa NNE 6.4 km/h 12.9 km/h 93% 0.25 mm
15:09 8.7 °C 7.6 °C 997.9 hPa NE 3.2 km/h 16.1 km/h 93% 0.25 mm
15:14 8.6 °C 7.6 °C 997.9 hPa NNE 6.4 km/h 16.1 km/h 93% 0 mm
15:19 8.5 °C 7.4 °C 997.9 hPa NE 6.4 km/h 16.1 km/h 93% 0 mm
15:24 8.5 °C 7.4 °C 997.9 hPa NE 6.4 km/h 16.1 km/h 93% 0 mm
15:29 8.6 °C 7.7 °C 997.9 hPa NE 6.4 km/h 17.7 km/h 94% 0.25 mm
15:34 8.7 °C 7.8 °C 997.5 hPa NE 9.7 km/h 14.5 km/h 94% 0.51 mm
15:39 8.5 °C 7.4 °C 997.5 hPa NE 8 km/h 12.9 km/h 93% 0.51 mm
15:44 8.5 °C 7.4 °C 997.5 hPa NNE 6.4 km/h 12.9 km/h 93% 0.51 mm
15:49 8.6 °C 7.7 °C 997.2 hPa NNE 6.4 km/h 17.7 km/h 94% 0.51 mm
15:54 8.6 °C 7.7 °C 997.2 hPa NE 6.4 km/h 19.3 km/h 94% 0.51 mm
15:59 8.6 °C 7.7 °C 997.2 hPa NE 4.8 km/h 16.1 km/h 94% 0.51 mm
16:04 8.7 °C 7.8 °C 997.2 hPa NNE 8 km/h 17.7 km/h 94% 0.51 mm
16:09 8.7 °C 7.8 °C 997.2 hPa NE 9.7 km/h 9.7 km/h 94% 0.51 mm
16:14 8.6 °C 7.7 °C 996.8 hPa NNE 6.4 km/h 19.3 km/h 94% 0.51 mm
16:19 8.6 °C 7.7 °C 996.8 hPa NE 8 km/h 19.3 km/h 94% 0.51 mm
16:24 8.6 °C 7.7 °C 996.8 hPa NNE 8 km/h 19.3 km/h 94% 0.51 mm
16:29 8.7 °C 7.8 °C 996.8 hPa NE 8 km/h 19.3 km/h 94% 0.25 mm
16:34 8.7 °C 7.8 °C 996.8 hPa NE 4.8 km/h 16.1 km/h 94% 0 mm
16:39 8.7 °C 7.8 °C 996.5 hPa NNE 9.7 km/h 16.1 km/h 94% 0 mm
16:44 8.8 °C 7.7 °C 996.5 hPa NE 3.2 km/h 17.7 km/h 93% 0 mm
16:49 8.8 °C 7.9 °C 996.5 hPa NE 8 km/h 17.7 km/h 94% 0 mm
16:54 8.8 °C 7.7 °C 996.5 hPa NE 8 km/h 17.7 km/h 93% 0 mm
16:59 8.8 °C 7.9 °C 996.5 hPa NE 9.7 km/h 17.7 km/h 94% 0 mm
17:04 8.8 °C 7.7 °C 996.5 hPa NE 8 km/h 16.1 km/h 93% 0 mm
17:09 8.8 °C 7.7 °C 996.5 hPa NNE 6.4 km/h 16.1 km/h 93% 0 mm
17:14 8.8 °C 7.7 °C 996.5 hPa ENE 11.3 km/h 16.1 km/h 93% 0 mm
17:19 8.7 °C 7.7 °C 996.5 hPa NE 9.7 km/h 17.7 km/h 93% 0 mm
17:24 8.8 °C 7.7 °C 996.8 hPa NE 9.7 km/h 12.9 km/h 93% 0 mm
17:29 8.8 °C 7.9 °C 996.8 hPa NE 3.2 km/h 12.9 km/h 94% 0 mm
17:34 8.8 °C 7.9 °C 996.5 hPa NE 11.3 km/h 11.3 km/h 94% 0 mm
17:39 8.8 °C 7.9 °C 996.5 hPa NE 3.2 km/h 12.9 km/h 94% 0.25 mm
17:44 8.8 °C 7.9 °C 996.5 hPa North 8 km/h 14.5 km/h 94% 0.25 mm
17:49 8.8 °C 7.9 °C 996.5 hPa NE 6.4 km/h 14.5 km/h 94% 0.25 mm
17:54 8.9 °C 8 °C 996.2 hPa NE 6.4 km/h 14.5 km/h 94% 0.25 mm
17:59 8.8 °C 7.9 °C 996.2 hPa NE 4.8 km/h 12.9 km/h 94% 0.51 mm
18:04 8.8 °C 7.9 °C 996.2 hPa NE 6.4 km/h 12.9 km/h 94% 0.51 mm
18:09 8.8 °C 7.9 °C 996.2 hPa NE 4.8 km/h 12.9 km/h 94% 0.76 mm
18:14 8.9 °C 8 °C 996.2 hPa NNE 4.8 km/h 12.9 km/h 94% 0.76 mm
18:19 8.8 °C 7.9 °C 996.2 hPa NE 3.2 km/h 12.9 km/h 94% 0.76 mm
18:24 8.9 °C 8 °C 996.2 hPa NNE 1.6 km/h 6.4 km/h 94% 0.76 mm
18:29 8.9 °C 8 °C 996.2 hPa NNE 3.2 km/h 11.3 km/h 94% 1.02 mm
18:34 8.9 °C 8 °C 996.2 hPa North 1.6 km/h 9.7 km/h 94% 1.02 mm
18:39 8.9 °C 8 °C 996.2 hPa North 3.2 km/h 6.4 km/h 94% 0.76 mm
18:44 8.8 °C 7.9 °C 996.2 hPa North 1.6 km/h 8 km/h 94% 1.02 mm
18:49 8.9 °C 8 °C 996.2 hPa NE 1.6 km/h 8 km/h 94% 1.02 mm
18:54 8.9 °C 8 °C 996.2 hPa NNE 3.2 km/h 8 km/h 94% 1.27 mm
18:59 8.8 °C 7.9 °C 996.5 hPa NNE 3.2 km/h 8 km/h 94% 1.27 mm
19:04 8.8 °C 7.9 °C 996.5 hPa North 3.2 km/h 8 km/h 94% 1.52 mm
19:09 8.8 °C 7.9 °C 996.5 hPa NNW 3.2 km/h 8 km/h 94% 1.52 mm
19:14 8.8 °C 7.9 °C 996.5 hPa NNW 3.2 km/h 6.4 km/h 94% 1.78 mm
19:19 8.8 °C 7.9 °C 996.5 hPa NNW 3.2 km/h 8 km/h 94% 2.03 mm
19:24 8.8 °C 7.9 °C 996.8 hPa NNW 3.2 km/h 8 km/h 94% 2.03 mm
19:29 8.7 °C 7.8 °C 996.8 hPa NNW 3.2 km/h 8 km/h 94% 1.78 mm
19:34 8.7 °C 7.8 °C 996.8 hPa NW 3.2 km/h 8 km/h 94% 1.78 mm
19:39 8.7 °C 7.8 °C 996.8 hPa North 4.8 km/h 6.4 km/h 94% 1.78 mm
19:44 8.7 °C 7.8 °C 996.8 hPa NW 3.2 km/h 6.4 km/h 94% 1.52 mm
19:49 8.7 °C 7.8 °C 996.8 hPa NNW 4.8 km/h 6.4 km/h 94% 1.52 mm
19:54 8.7 °C 7.8 °C 996.8 hPa NNW 3.2 km/h 8 km/h 94% 1.27 mm
19:59 8.6 °C 7.7 °C 996.8 hPa NNW 1.6 km/h 6.4 km/h 94% 1.02 mm
20:04 8.6 °C 7.7 °C 996.8 hPa NNW 1.6 km/h 6.4 km/h 94% 0.76 mm
20:09 8.6 °C 7.7 °C 996.8 hPa NNW 4.8 km/h 8 km/h 94% 0.51 mm
20:14 8.5 °C 7.6 °C 996.5 hPa NW 3.2 km/h 9.7 km/h 94% 0.25 mm
20:19 8.3 °C 7.4 °C 996.2 hPa NNW 4.8 km/h 12.9 km/h 94% 0 mm
20:24 8.3 °C 7.4 °C 996.2 hPa NNW 4.8 km/h 12.9 km/h 94% 0 mm
20:29 8.2 °C 7.3 °C 996.2 hPa NNW 4.8 km/h 9.7 km/h 94% 0 mm
20:34 8.2 °C 7.3 °C 996.5 hPa North 4.8 km/h 9.7 km/h 94% 0 mm
20:39 8.1 °C 7.2 °C 996.5 hPa North 4.8 km/h 9.7 km/h 94% 0 mm
20:44 8.1 °C 7.2 °C 996.5 hPa Calm   9.7 km/h 94% 0 mm
20:49 8.1 °C 7.2 °C 996.5 hPa NNW 11.3 km/h 11.3 km/h 94% 0 mm
20:54 8.1 °C 7.2 °C 996.8 hPa NNW 3.2 km/h 12.9 km/h 94% 0 mm
20:59 7.9 °C 7.1 °C 996.5 hPa NNW 1.6 km/h 9.7 km/h 94% 0 mm
21:04 8 °C 7.1 °C 996.8 hPa NNW 1.6 km/h 4.8 km/h 94% 0 mm
21:09 8.1 °C 7.2 °C 996.8 hPa NNW 3.2 km/h 6.4 km/h 94% 0 mm
21:14 8.1 °C 7.2 °C 996.8 hPa NNW 3.2 km/h 6.4 km/h 94% 0 mm
21:19 8.1 °C 7.2 °C 996.8 hPa NNW 3.2 km/h 4.8 km/h 94% 0 mm
21:24 8.1 °C 7.2 °C 996.8 hPa North 3.2 km/h 8 km/h 94% 0 mm
21:29 8.1 °C 7.2 °C 996.8 hPa North 3.2 km/h 9.7 km/h 94% 0 mm
21:34 8 °C 7.1 °C 996.8 hPa NNW 3.2 km/h 9.7 km/h 94% 0 mm
21:39 7.9 °C 7.1 °C 996.8 hPa Calm   8 km/h 94% 0 mm
21:44 7.9 °C 7 °C 996.5 hPa North 3.2 km/h 9.7 km/h 94% 0 mm
21:49 7.7 °C 6.8 °C 996.5 hPa NW 8 km/h 16.1 km/h 94% 0 mm
21:54 7.4 °C 6.6 °C 996.5 hPa NW 6.4 km/h 16.1 km/h 94% 0 mm
21:59 7.3 °C 6.4 °C 996.5 hPa NW 4.8 km/h 14.5 km/h 94% 0 mm
22:04 7.2 °C 6.3 °C 996.5 hPa NNW 4.8 km/h 14.5 km/h 94% 0 mm
22:09 7.1 °C 6.2 °C 996.5 hPa NNW 3.2 km/h 9.7 km/h 94% 0 mm
22:14 7.1 °C 6.2 °C 996.8 hPa NW 3.2 km/h 14.5 km/h 94% 0 mm
22:19 7.2 °C 6.3 °C 996.5 hPa NNW 3.2 km/h 12.9 km/h 94% 0 mm
22:24 7.2 °C 6.3 °C 996.8 hPa West 3.2 km/h 8 km/h 94% 0 mm
22:29 7.3 °C 6.4 °C 996.8 hPa NW 3.2 km/h 9.7 km/h 94% 0 mm
22:34 7.3 °C 6.4 °C 996.8 hPa NW 3.2 km/h 9.7 km/h 94% 0 mm
22:39 7.3 °C 6.4 °C 996.5 hPa NW 1.6 km/h 9.7 km/h 94% 0.25 mm
22:44 7.4 °C 6.7 °C 996.5 hPa NE 3.2 km/h 6.4 km/h 95% 0.25 mm
22:49 7.5 °C 6.8 °C 996.2 hPa NNW 1.6 km/h 6.4 km/h 95% 0.25 mm
22:54 7.6 °C 6.9 °C 996.2 hPa NNW 1.6 km/h 8 km/h 95% 0.25 mm
22:59 7.7 °C 6.9 °C 995.8 hPa North 3.2 km/h 12.9 km/h 95% 0.25 mm
23:04 7.8 °C 7 °C 996.2 hPa North 4.8 km/h 12.9 km/h 95% 0.25 mm
23:09 7.8 °C 7.1 °C 996.5 hPa North 3.2 km/h 8 km/h 95% 0.25 mm
23:14 7.8 °C 7.1 °C 996.8 hPa NNW 1.6 km/h 6.4 km/h 95% 0.25 mm
23:19 7.9 °C 7.2 °C 997.2 hPa South 1.6 km/h 6.4 km/h 95% 0.25 mm
23:24 7.9 °C 7.2 °C 997.2 hPa SSE 1.6 km/h 4.8 km/h 95% 0.51 mm
23:29 8 °C 7.2 °C 996.8 hPa WNW 4.8 km/h 4.8 km/h 95% 0.76 mm
23:34 8.1 °C 7.3 °C 996.2 hPa North 6.4 km/h 9.7 km/h 95% 1.02 mm
23:39 8.1 °C 7.3 °C 995.8 hPa NW 6.4 km/h 12.9 km/h 95% 1.02 mm
23:44 8.1 °C 7.3 °C 995.8 hPa NNW 3.2 km/h 16.1 km/h 95% 1.02 mm
23:49 8.1 °C 7.3 °C 995.8 hPa SW 6.4 km/h 6.4 km/h 95% 1.02 mm
23:54 8.1 °C 7.3 °C 995.8 hPa NW 6.4 km/h 8 km/h 95% 1.02 mm
23:59 8.1 °C 7.3 °C 995.8 hPa NW 3.2 km/h 11.3 km/h 95% 1.02 mm
Buffalo, New York, USA
Compliments of Weather Underground - 2.5 mb